Date,TemperatureHighF,TemperatureAvgF,TemperatureLowF,DewpointHighF,DewpointAvgF,DewpointLowF,HumidityHigh,HumidityAvg,HumidityLow,PressureMaxIn,PressureMinIn,WindSpeedMaxMPH,WindSpeedAvgMPH,GustSpeedMaxMPH,PrecipitationSumIn
2013-1-1,35.8,31.8,20.8,34.0,30.2,20.0,96,94,93,29.66,29.43,9,3,13,0.00
2013-1-2,30.0,21.3,13.8,29.0,20.2,13.0,97,96,94,29.84,29.63,6,2,9,0.00
2013-1-3,26.1,16.0,5.9,25.0,15.1,5.0,97,96,95,29.86,29.72,4,0,6,0.00
2013-1-4,37.4,27.9,13.8,35.0,26.5,13.0,97,94,90,29.72,29.52,7,1,8,0.00
2013-1-5,41.2,33.2,24.1,38.0,31.4,23.0,95,93,90,29.99,29.58,6,2,6,0.00
2013-1-6,41.5,32.2,24.3,39.0,30.5,23.0,95,93,90,29.93,29.66,4,1,5,0.00
2013-1-7,39.0,31.7,23.5,36.0,30.0,22.0,95,93,90,30.14,29.69,6,1,6,0.00
2013-1-8,43.3,33.3,22.8,40.0,31.3,22.0,96,93,88,30.08,29.99,5,1,7,0.00
2013-1-9,42.4,34.5,24.4,40.0,32.4,23.0,95,92,90,30.14,29.72,7,1,7,0.00
2013-1-10,46.6,40.2,32.0,43.0,37.6,30.0,94,90,86,30.25,29.75,7,3,10,0.00
2013-1-11,37.8,33.4,27.3,35.0,29.7,23.0,94,87,57,30.25,29.96,0,0,0,0.04
2013-1-12,41.2,38.5,36.1,39.0,36.1,30.0,86,83,78,29.96,29.84,0,0,0,0.04
2013-1-13,50.0,44.1,38.5,48.0,42.6,37.0,98,93,86,29.86,29.72,3,0,5,0.00
2013-1-14,59.9,50.3,42.1,54.0,42.7,27.0,98,77,48,29.99,29.58,6,1,7,0.00
2013-1-15,41.9,37.9,33.3,27.0,24.6,23.0,72,59,50,30.05,29.96,4,0,4,0.00
2013-1-16,34.3,33.4,31.5,34.0,30.2,24.0,97,88,68,29.96,29.55,0,0,0,0.00
2013-1-17,41.0,34.3,29.5,36.0,27.3,15.0,97,77,51,29.81,29.55,6,0,6,0.16
2013-1-18,30.4,23.6,18.5,14.0,5.2,1.0,53,45,37,30.17,29.78,8,1,9,0.00
2013-1-19,46.9,35.4,22.3,31.0,20.2,7.0,71,54,45,30.11,29.60,6,1,8,0.04
2013-1-20,51.3,40.4,29.8,36.0,25.3,10.0,73,55,41,29.63,29.25,10,3,10,0.00
2013-1-21,30.6,26.4,22.8,19.0,10.5,5.0,78,52,41,29.81,29.52,6,1,8,0.00
2013-1-22,27.1,21.4,14.9,19.0,8.5,-2.0,81,59,43,29.81,29.49,7,2,8,0.00
2013-1-23,20.3,13.5,9.3,-2.0,-5.8,-12.0,47,41,35,29.86,29.75,8,2,9,0.00
2013-1-24,22.3,12.9,5.0,-2.0,-11.1,-18.0,43,33,18,29.96,29.78,9,3,10,0.00
2013-1-25,26.1,17.8,10.0,3.0,-8.4,-18.0,45,31,14,30.02,29.78,8,1,8,0.00
2013-1-26,27.9,18.8,11.5,7.0,0.4,-12.0,62,46,23,29.96,29.72,7,2,8,0.00
2013-1-27,32.7,21.8,12.9,5.0,-2.9,-18.0,51,35,12,30.19,29.96,7,2,8,0.00
2013-1-28,30.7,25.2,19.6,25.0,12.0,2.0,88,59,41,30.17,29.75,3,0,3,0.00
2013-1-29,34.2,30.5,25.9,33.0,26.9,23.0,95,86,79,29.93,29.75,0,0,0,0.00
2013-1-30,57.9,45.1,33.3,57.0,44.2,32.0,98,97,95,29.86,29.19,5,1,8,0.24
2013-1-31,59.9,47.4,31.3,59.0,37.9,16.0,98,71,45,29.31,28.69,10,4,14,0.31
2013-2-1,35.6,29.8,24.1,17.0,10.5,5.0,54,44,39,29.81,29.31,8,4,9,0.00
2013-2-2,32.4,26.0,19.2,11.0,6.9,2.0,48,44,40,29.96,29.75,5,1,7,0.00
2013-2-3,28.2,26.1,21.4,22.0,17.6,9.0,84,71,45,29.78,29.46,3,0,4,0.00
2013-2-4,31.8,25.5,21.7,21.0,11.3,5.0,84,56,42,29.66,29.43,8,3,9,0.00
2013-2-5,31.1,26.4,21.9,20.0,11.0,5.0,76,52,45,29.75,29.66,4,0,4,0.00
2013-2-6,39.9,30.7,24.4,25.0,18.4,8.0,85,62,43,30.02,29.63,7,2,8,0.00
2013-2-7,32.7,25.9,17.4,8.0,3.7,0.0,54,39,31,30.25,30.02,7,0,7,0.00
2013-2-8,27.7,24.4,18.1,21.0,16.3,3.0,94,73,36,30.22,29.37,7,1,8,0.00
2013-2-9,23.0,19.5,16.2,21.0,14.5,3.0,95,82,54,29.93,29.34,10,5,10,0.00
2013-2-10,40.1,22.4,4.1,15.0,4.9,-10.0,62,47,30,30.11,29.93,5,1,8,0.04
2013-2-11,34.5,28.6,17.2,34.0,24.0,7.0,98,83,62,30.08,29.34,0,0,0,0.20
2013-2-12,44.8,37.6,33.4,35.0,27.5,24.0,98,68,49,29.60,29.34,9,3,11,0.00
2013-2-13,43.7,34.5,27.7,26.0,23.5,21.0,80,65,49,29.58,29.43,5,0,6,0.00
2013-2-14,44.6,35.3,29.1,25.0,22.0,20.0,75,59,42,29.72,29.43,5,0,5,0.00
2013-2-15,49.3,37.3,26.6,36.0,28.7,21.0,90,71,49,29.72,29.60,5,1,8,0.00
2013-2-16,37.9,34.7,30.4,32.0,26.1,16.0,92,72,51,29.66,29.46,5,1,6,0.00
2013-2-17,30.2,22.7,17.8,17.0,9.3,0.0,83,57,44,29.46,29.13,10,6,12,0.00
2013-2-18,33.6,23.1,15.1,6.0,1.9,-2.0,47,40,25,29.86,29.40,9,4,15,0.00
2013-2-19,43.2,34.1,23.4,39.0,21.0,4.0,98,62,42,29.90,29.31,3,0,3,0.24
2013-2-20,39.0,32.9,27.3,37.0,20.2,11.0,98,62,45,29.49,29.28,8,4,10,0.00
2013-2-21,35.4,28.3,24.8,15.0,11.8,10.0,56,50,43,29.90,29.49,8,4,10,0.00
2013-2-22,40.8,32.1,23.4,24.0,18.3,12.0,72,57,42,30.11,29.93,5,1,6,0.00
2013-2-23,38.1,34.1,29.7,33.0,27.4,22.0,96,77,63,30.05,29.63,3,0,3,0.00
2013-2-24,34.9,33.9,32.7,34.0,33.3,32.0,98,97,95,29.63,29.43,4,0,4,0.16
2013-2-25,37.9,34.3,30.9,34.0,32.2,30.0,98,92,74,29.96,29.63,0,0,0,0.31
2013-2-26,42.3,35.1,28.9,37.0,29.8,25.0,98,82,56,30.05,29.90,3,0,6,0.08
2013-2-27,40.5,37.5,34.2,40.0,36.3,31.0,98,96,84,29.90,29.31,6,1,8,1.10
2013-2-28,43.9,37.4,33.4,41.0,35.7,33.0,98,95,84,29.37,29.25,3,0,3,0.00
2013-3-1,40.3,37.1,31.6,36.0,30.0,26.0,98,77,60,29.40,29.25,5,1,8,0.00
2013-3-2,41.7,37.4,33.6,29.0,26.0,23.0,73,63,55,29.40,29.34,6,1,6,0.00
2013-3-3,40.6,35.9,33.8,32.0,27.6,24.0,89,72,62,29.37,29.28,4,1,5,0.00
2013-3-4,40.6,35.0,30.7,26.0,22.6,20.0,70,61,50,29.46,29.31,8,4,10,0.00
2013-3-5,45.9,37.0,32.5,30.0,24.8,21.0,84,62,48,29.81,29.49,5,2,8,0.00
2013-3-6,39.9,36.3,33.8,37.0,33.0,29.0,97,88,66,29.84,29.78,5,0,8,0.08
2013-3-7,34.7,32.9,31.5,33.0,29.9,27.0,95,89,78,29.81,29.72,4,0,5,0.08
2013-3-8,36.0,32.7,30.4,32.0,30.0,24.0,97,90,66,29.86,29.66,0,0,2,0.00
2013-3-9,50.0,36.9,28.9,28.0,24.4,21.0,88,62,38,30.08,29.86,4,0,5,0.31
2013-3-10,44.8,34.8,25.3,34.0,27.4,23.0,92,75,51,30.14,30.05,5,0,5,0.00
2013-3-11,49.5,40.9,34.2,39.0,34.6,31.0,94,78,55,30.05,29.86,5,0,6,0.00
2013-3-12,53.2,47.3,39.7,52.0,46.4,37.0,98,96,88,29.86,29.46,5,0,6,0.35
2013-3-13,53.1,44.7,36.5,51.0,32.8,21.0,98,65,39,29.52,29.43,6,2,8,0.00
2013-3-14,39.4,33.1,24.3,22.0,15.3,5.0,59,48,41,29.58,29.43,8,3,10,0.00
2013-3-15,42.1,31.5,21.7,26.0,13.0,4.0,67,46,33,29.60,29.37,6,3,9,0.00
2013-3-16,40.8,34.6,29.5,24.0,16.1,13.0,65,47,34,29.60,29.40,5,1,6,0.00
2013-3-17,39.9,31.7,24.3,16.0,11.0,4.0,64,43,23,30.05,29.60,8,2,12,0.00
2013-3-18,38.8,29.8,19.8,24.0,6.1,-12.0,77,39,11,30.17,29.96,4,0,4,0.00
2013-3-19,34.2,32.6,28.9,34.0,31.1,24.0,98,94,77,29.96,29.34,4,0,5,0.00
2013-3-20,39.4,31.8,26.6,26.0,21.7,18.0,89,68,50,29.55,29.43,8,1,8,0.04
2013-3-21,37.6,30.4,22.1,27.0,20.9,17.0,87,69,45,29.55,29.34,4,0,4,0.04
2013-3-22,41.2,33.7,28.8,26.0,18.8,17.0,88,55,42,29.46,29.34,6,2,8,0.00
2013-3-23,43.5,35.1,28.4,22.0,19.3,17.0,71,53,41,29.52,29.37,10,3,12,0.00
2013-3-24,46.8,37.8,32.4,25.0,21.7,18.0,70,52,42,29.55,29.46,6,2,8,0.00
2013-3-25,42.6,36.4,31.3,30.0,26.6,23.0,78,68,55,29.49,29.25,4,0,8,0.00
2013-3-26,50.2,41.1,35.2,28.0,25.2,20.0,71,54,38,29.52,29.28,5,1,6,0.00
2013-3-27,55.0,42.8,30.9,29.0,24.4,20.0,70,49,36,29.60,29.46,6,2,8,0.00
2013-3-28,49.1,42.8,36.9,36.0,31.9,28.0,88,66,46,29.75,29.60,4,0,5,0.00
2013-3-29,56.8,45.5,33.1,39.0,31.3,27.0,88,59,38,29.78,29.69,5,1,6,0.00
2013-3-30,59.4,46.9,35.8,31.0,22.6,-8.0,76,44,7,29.81,29.72,8,2,8,0.00
2013-3-31,60.4,44.6,29.3,39.0,26.9,18.0,77,52,28,29.84,29.49,7,1,8,0.00
2013-4-1,61.0,47.3,36.0,45.0,36.3,15.0,95,66,40,29.52,29.25,10,3,10,0.12
2013-4-2,44.2,36.3,31.6,20.0,14.4,11.0,46,40,33,29.66,29.52,9,4,11,0.00
2013-4-3,49.8,38.3,31.3,15.0,11.9,-6.0,46,35,10,29.86,29.66,9,5,11,0.00
2013-4-4,58.8,43.4,30.6,22.0,13.4,-9.0,47,33,6,30.02,29.78,6,2,8,0.00
2013-4-5,63.9,47.3,37.9,34.0,25.4,20.0,60,44,26,29.78,29.34,8,2,10,0.00
2013-4-6,49.8,39.3,31.8,24.0,4.0,-13.0,50,28,8,30.05,29.60,8,3,9,0.00
2013-4-7,58.8,42.7,27.7,37.0,23.4,11.0,70,47,33,30.05,29.72,8,2,10,0.00
2013-4-8,67.5,53.0,43.3,43.0,38.0,34.0,89,60,34,29.81,29.69,5,1,6,0.00
2013-4-9,71.6,56.5,46.4,52.0,43.0,37.0,91,62,41,29.81,29.60,9,1,9,0.04
2013-4-10,64.6,52.5,46.9,50.0,45.7,41.0,95,77,53,29.75,29.58,3,0,4,0.16
2013-4-11,53.8,47.9,42.3,48.0,38.5,26.0,97,73,45,29.86,29.58,6,0,6,0.08
2013-4-12,41.9,38.6,36.9,37.0,35.1,31.0,97,88,64,29.90,29.52,5,0,6,0.43
2013-4-13,54.0,44.0,36.1,41.0,37.2,34.0,97,79,52,29.66,29.49,4,0,8,0.08
2013-4-14,53.8,46.2,38.8,39.0,32.4,26.0,92,62,40,29.93,29.63,7,2,8,0.00
2013-4-15,60.4,46.1,31.6,39.0,33.0,27.0,85,59,37,30.11,29.96,4,0,6,0.00
2013-4-16,69.3,53.1,38.1,50.0,41.6,34.0,89,65,42,30.14,29.78,7,2,8,0.00
2013-4-17,68.4,58.4,49.5,54.0,38.5,28.0,88,49,27,30.05,29.78,6,2,8,0.00
2013-4-18,65.8,51.6,37.9,43.0,33.5,27.0,75,49,34,30.17,29.86,4,1,6,0.00
2013-4-19,76.3,63.2,53.1,64.0,56.6,43.0,94,77,52,29.86,29.37,8,2,11,0.00
2013-4-20,66.7,54.3,44.6,64.0,41.9,23.0,94,65,40,29.93,29.34,8,3,8,0.35
2013-4-21,56.3,44.3,35.6,27.0,21.5,16.0,61,41,28,30.40,29.96,7,2,8,0.00
2013-4-22,53.4,42.9,32.4,39.0,27.6,23.0,83,56,34,30.48,30.34,5,1,7,0.00
2013-4-23,42.3,40.8,38.5,41.0,35.9,28.0,97,85,64,30.31,29.86,4,0,6,0.00
2013-4-24,76.3,57.1,41.4,54.0,45.0,39.0,97,67,34,29.86,29.52,6,2,8,0.00
2013-4-25,67.5,56.6,45.7,52.0,37.5,27.0,88,51,27,29.99,29.55,8,2,10,0.00
2013-4-26,62.2,49.6,36.9,41.0,32.9,28.0,76,52,34,30.17,30.02,4,0,6,0.00
2013-4-27,68.9,52.6,37.8,45.0,36.4,31.0,87,55,33,30.17,30.02,4,0,5,0.00
2013-4-28,72.5,55.2,39.0,46.0,36.6,28.0,83,50,30,30.08,29.93,4,0,6,0.00
2013-4-29,73.0,58.6,46.6,50.0,37.6,28.0,74,45,32,30.02,29.90,4,0,6,0.00
2013-4-30,71.2,58.3,47.3,41.0,21.1,-16.0,60,31,3,30.11,29.99,4,0,6,0.00
2013-5-1,71.8,55.7,38.7,46.0,34.0,29.0,78,45,24,30.19,30.11,4,0,6,0.00
2013-5-2,77.7,56.9,42.3,50.0,39.0,32.0,79,51,27,30.22,30.08,5,0,6,0.00
2013-5-3,63.1,52.2,42.6,45.0,39.0,34.0,82,60,44,30.25,30.11,4,0,6,0.00
2013-5-4,64.4,51.1,39.7,48.0,37.3,24.0,88,61,25,30.11,30.02,5,1,7,0.00
2013-5-5,63.7,49.5,36.7,43.0,37.3,33.0,89,63,40,30.08,29.99,4,0,5,0.00
2013-5-6,72.9,53.3,36.7,48.0,42.2,33.0,89,66,37,30.02,29.86,3,0,5,0.00
2013-5-7,79.3,62.9,45.5,57.0,50.6,41.0,89,65,41,29.90,29.81,3,0,6,0.00
2013-5-8,72.9,63.2,53.6,63.0,58.2,50.0,94,82,60,29.93,29.78,4,0,6,0.00
2013-5-9,66.4,60.5,57.9,64.0,58.9,57.0,97,93,81,29.78,29.63,0,0,0,0.39
2013-5-10,77.9,64.9,53.6,61.0,57.1,53.0,98,77,47,29.69,29.60,3,0,4,0.00
2013-5-11,69.3,63.9,59.0,63.0,59.6,55.0,97,86,72,29.66,29.43,5,0,6,0.08
2013-5-12,71.1,61.4,51.6,62.0,51.8,32.0,97,74,43,29.55,29.31,6,1,6,0.12
2013-5-13,61.3,50.6,40.6,37.0,32.4,27.0,77,51,37,29.75,29.55,5,1,6,0.00
2013-5-14,60.4,49.9,38.5,36.0,32.0,29.0,77,51,37,29.78,29.69,5,1,6,0.00
2013-5-15,66.0,51.5,37.4,52.0,40.4,31.0,88,68,37,29.78,29.43,5,0,8,0.00
2013-5-16,81.0,66.2,52.5,52.0,45.1,36.0,90,52,27,29.55,29.37,7,2,8,0.00
2013-5-17,68.5,60.5,51.1,45.0,40.1,36.0,66,47,35,29.96,29.55,5,1,6,0.00
2013-5-18,73.2,58.7,43.7,46.0,42.8,37.0,85,58,34,30.05,29.96,4,0,6,0.00
2013-5-19,70.7,57.2,48.0,55.0,49.9,43.0,96,77,48,30.08,29.96,0,0,4,0.04
2013-5-20,79.2,66.4,56.5,68.0,61.5,55.0,97,84,58,29.96,29.66,4,0,4,0.08
2013-5-21,80.2,63.3,53.1,68.0,58.7,50.0,95,84,64,29.75,29.60,3,0,4,0.00
2013-5-22,66.6,57.0,51.4,64.0,55.2,50.0,98,93,82,29.81,29.63,3,0,5,0.35
2013-5-23,71.8,63.0,54.9,71.0,61.5,54.0,98,95,89,29.66,29.55,3,0,6,0.08
2013-5-24,69.1,62.9,50.2,68.0,61.1,48.0,98,94,81,29.58,29.40,0,0,3,0.28
2013-5-25,51.1,47.8,42.3,51.0,46.4,39.0,98,97,93,29.58,29.46,3,0,5,0.20
2013-5-26,56.7,48.6,41.0,43.0,39.3,37.0,95,73,51,29.84,29.46,6,1,6,0.04
2013-5-27,70.2,56.1,40.6,45.0,40.9,37.0,92,61,34,29.90,29.81,4,1,6,0.00
2013-5-28,72.5,58.8,44.2,52.0,46.0,41.0,90,66,40,29.96,29.90,3,0,4,0.00
2013-5-29,67.6,62.0,58.5,66.0,60.1,52.0,98,93,75,29.93,29.72,0,0,0,0.91
2013-5-30,84.0,72.1,62.6,72.0,66.3,62.0,98,83,57,29.81,29.75,4,0,4,0.16
2013-5-31,90.9,77.6,63.9,73.0,66.5,63.0,96,72,43,29.84,29.66,4,0,4,0.00
2013-6-1,91.2,78.9,66.2,72.0,66.5,64.0,90,68,43,29.72,29.60,4,0,5,0.00
2013-6-2,89.2,77.9,69.4,72.0,67.5,64.0,90,72,47,29.63,29.46,5,1,11,0.00
2013-6-3,75.2,68.7,61.5,70.0,63.0,45.0,96,82,55,29.60,29.49,3,0,4,0.47
2013-6-4,69.1,61.4,50.7,50.0,45.0,41.0,75,56,43,29.84,29.58,5,0,5,0.00
2013-6-5,72.1,62.1,50.2,52.0,48.2,45.0,89,63,42,29.93,29.84,2,0,3,0.00
2013-6-6,72.3,63.9,54.9,54.0,51.1,48.0,85,64,47,29.93,29.84,2,0,3,0.00
2013-6-7,58.5,56.3,53.6,57.0,55.0,53.0,98,95,84,29.86,29.58,0,0,0,1.89
2013-6-8,74.3,65.1,53.1,68.0,60.5,53.0,98,85,70,29.75,29.46,4,0,5,0.79
2013-6-9,76.5,66.2,55.8,61.0,56.8,54.0,96,75,47,29.90,29.75,3,0,5,0.00
2013-6-10,67.5,62.0,56.3,63.0,58.2,54.0,97,87,72,29.96,29.75,0,0,4,0.55
2013-6-11,61.0,58.1,56.3,59.0,57.3,56.0,98,97,92,29.75,29.31,0,0,4,0.87
2013-6-12,68.5,61.7,56.8,59.0,55.9,54.0,98,82,60,29.55,29.31,5,1,6,0.04
2013-6-13,63.5,57.4,52.7,61.0,55.2,50.0,98,93,82,29.55,29.43,0,0,0,0.59
2013-6-14,70.3,59.2,52.7,61.0,55.3,52.0,98,87,59,29.52,29.40,2,0,3,0.79
2013-6-15,75.6,65.8,57.0,57.0,50.5,46.0,87,61,36,29.66,29.52,4,0,5,0.00
2013-6-16,71.2,64.4,54.1,63.0,56.5,50.0,88,76,56,29.69,29.46,3,0,3,0.00
2013-6-17,82.4,68.1,58.8,64.0,61.5,57.0,96,80,49,29.63,29.52,4,0,4,0.31
2013-6-18,70.5,62.3,59.0,66.0,60.8,57.0,98,95,85,29.69,29.63,3,0,5,0.12
2013-6-19,71.6,62.9,57.0,59.0,55.6,50.0,98,79,49,29.86,29.66,0,0,4,0.16
2013-6-20,76.1,64.3,51.4,59.0,53.4,50.0,94,71,45,29.99,29.86,4,0,4,0.00
2013-6-21,80.8,69.3,58.8,64.0,59.3,54.0,88,72,43,29.99,29.90,3,0,4,0.00
2013-6-22,68.4,64.2,62.1,63.0,60.9,59.0,90,88,82,29.96,29.93,0,0,0,0.00